{"data":{"norad_id":53289,"epoch":"2026-05-24T20:53:34.939392Z","epoch_age_seconds":79464,"freshness":"FRESH","line1":"1 53289U 22086AZ  26144.87054328 -.00000140  00000+0  92615-5 0  9992","line2":"2 53289  53.2126 197.2740 0001054  79.8890 280.2221 15.08842927212759","mean_motion":15.08842927,"eccentricity":0.0001054,"inclination_deg":53.2126,"raan_deg":197.274,"arg_perigee_deg":79.889,"mean_anomaly_deg":280.2221,"bstar":9.2615e-6,"rev_number":21275,"period_min":95.437369538731,"perigee_km":539.00529866051,"apogee_km":540.46358596055,"semimajor_km":6917.8714423105,"source":"CELESTRAK","updated_at":"2026-05-25T13:38:17.390921Z"}}